Date String (YYYY-MM-DD hh:mm:ss) UTC,Instrument flags,absolute air pressure of the measurement (hPa),sample flow rate (lpm),inlet stack bypass flow (lpm),air temperature of the measurement (°C),ambient temperature measured by the external sensor (°C),aerosol sample conditioner tube jacket temperature (°C),OPC LED temperature (°C),internal box temperature (°C),relative humidity of the measurement (%),span deviation,mass concentration of particles derived from Lorenz-Mie calculation of OPC scattering (μg/m³),mass concentration of particles derived from Lorenz-Mie calculation of OPC scattering (μg/m³),mass concentration of particles derived from Lorenz-Mie calculation of OPC scattering (μg/m³)
DateTimeUTC,F1_M11,P_M11,Q1_M11,Q2_M11,T1_M11,T2_M11,T3_M11,T4_M11,T5_M11,U1_M11,ZSPAN_M11,X0_M11,X2_M11,X1_M11
2023-06-13 20:00:00,SystemResetWarning,0830.1,5.00,000.00,029.5,027.9,000.0,038.0,031.0,29.0,0000.7,0009.13,0006.43,0006.13
2023-06-13 20:01:00,SystemResetWarning,0830.1,5.00,000.00,029.5,028.0,000.0,038.0,031.0,29.5,0000.7,0009.10,0006.40,0006.12
2023-06-13 20:02:00,SystemResetWarning,0830.1,5.01,000.00,029.5,028.0,000.0,038.0,030.9,29.7,0000.8,0009.10,0006.43,0006.17
2023-06-13 20:03:00,SystemResetWarning,0830.1,4.99,000.00,029.5,028.0,000.0,038.0,030.9,30.1,0000.9,0009.11,0006.47,0006.20
2023-06-13 20:04:00,SystemResetWarning,0830.1,5.01,000.00,029.5,028.0,000.0,038.0,030.9,30.1,0000.7,0009.10,0006.50,0006.23
2023-06-13 20:05:00,SystemResetWarning,0830.1,5.00,000.00,029.5,028.0,000.0,038.0,030.9,30.1,0000.9,0009.20,0006.55,0006.26
2023-06-13 20:06:00,SystemResetWarning,0830.1,4.99,000.00,029.5,028.0,000.0,038.0,030.9,29.7,0001.0,0009.27,0006.57,0006.26
2023-06-13 20:07:00,SystemResetWarning,0830.1,5.00,000.00,029.5,027.9,000.0,038.0,030.9,29.6,0000.8,0009.31,0006.58,0006.24
2023-06-13 20:08:00,SystemResetWarning,0830.1,4.99,000.00,029.5,027.9,000.0,038.0,030.9,29.2,0000.6,0009.50,0006.53,0006.17
2023-06-13 20:09:00,SystemResetWarning,0830.1,5.01,000.00,029.5,027.9,000.0,038.0,030.9,29.4,0001.1,0009.84,0006.48,0006.11
2023-06-13 20:10:00,SystemResetWarning,0830.0,5.01,000.00,029.5,027.9,000.0,038.0,030.9,29.5,0001.4,0010.06,0006.45,0006.05
2023-06-13 20:11:00,SystemResetWarning,0830.0,4.99,000.00,029.5,027.9,000.0,038.0,030.9,29.0,0001.9,0009.98,0006.35,0005.97
2023-06-13 20:12:00,SystemResetWarning,0830.0,4.99,000.00,029.5,027.9,000.0,038.0,030.9,29.1,0001.9,0009.84,0006.27,0005.90
2023-06-13 20:13:00,SystemResetWarning,0830.0,4.99,000.00,029.5,027.9,000.0,038.0,030.9,29.2,0002.0,0009.84,0006.22,0005.83
2023-06-13 20:14:00,SystemResetWarning,0830.0,5.00,000.00,029.5,027.9,000.0,038.0,030.9,29.4,0001.7,0009.79,0006.16,0005.77
2023-06-13 20:15:00,SystemResetWarning,0830.0,5.01,000.00,029.5,027.9,000.0,038.0,030.9,29.5,0001.9,0009.86,0006.18,0005.76
2023-06-13 20:16:00,SystemResetWarning,0830.0,4.99,000.00,029.5,027.9,000.0,038.0,030.9,29.6,0002.5,0009.89,0006.16,0005.73
2023-06-13 20:17:00,SystemResetWarning,0830.0,5.01,000.00,029.5,027.9,000.0,038.0,030.9,29.9,0002.7,0010.64,0006.24,0005.79
2023-06-13 20:18:00,SystemResetWarning,0830.0,5.00,000.00,029.5,027.8,000.0,038.0,030.9,30.5,0002.5,0010.87,0006.36,0005.90
2023-06-13 20:19:00,SystemResetWarning,0830.0,5.01,000.00,029.5,027.8,000.0,038.0,030.9,30.6,0002.8,0010.72,0006.44,0006.00
2023-06-13 20:20:00,SystemResetWarning,0830.0,5.00,000.00,029.5,027.8,000.0,038.0,030.9,29.8,0002.7,0010.34,0006.43,0006.01
2023-06-13 20:21:00,SystemResetWarning,0830.0,5.00,000.00,029.4,027.8,000.0,038.0,030.9,29.3,0002.7,0010.09,0006.42,0006.03
2023-06-13 20:22:00,SystemResetWarning,0829.9,5.01,000.00,029.4,027.8,000.0,038.0,030.8,29.8,0002.6,0010.06,0006.43,0006.04
2023-06-13 20:23:00,SystemResetWarning,0829.9,5.00,000.00,029.4,027.8,000.0,038.0,030.8,30.0,0002.2,0010.19,0006.47,0006.06
2023-06-13 20:24:00,SystemResetWarning,0830.0,5.00,000.00,029.4,027.8,000.0,038.0,030.8,30.1,0002.3,0010.25,0006.49,0006.05
2023-06-13 20:25:00,SystemResetWarning,0829.9,5.00,000.00,029.4,027.8,000.0,038.0,030.8,29.8,0002.5,0010.31,0006.48,0006.05
2023-06-13 20:26:00,SystemResetWarning,0829.8,5.00,000.00,029.4,027.8,000.0,038.0,030.8,29.8,0002.5,0010.22,0006.41,0005.99
2023-06-13 20:27:00,SystemResetWarning,0829.9,5.00,000.00,029.4,027.8,000.0,038.0,030.8,30.0,0002.1,0010.17,0006.37,0005.96
2023-06-13 20:28:00,SystemResetWarning,0829.8,5.00,000.00,029.4,027.8,000.0,038.0,030.8,30.4,0002.2,0009.40,0006.29,0005.92
2023-06-13 20:29:00,SystemResetWarning,0829.8,4.98,000.00,029.4,027.8,000.0,038.0,030.8,30.3,0002.4,0009.17,0006.20,0005.86
2023-06-13 20:30:00,SystemResetWarning,0829.8,5.00,000.00,029.4,027.8,000.0,038.0,030.8,30.4,0002.4,0009.10,0006.15,0005.82
2023-06-13 20:31:00,SystemResetWarning,0829.8,5.01,000.00,029.4,027.8,000.0,038.0,030.8,30.6,0002.1,0009.14,0006.21,0005.87
2023-06-13 20:32:00,SystemResetWarning,0829.8,5.01,000.00,029.4,027.8,000.0,038.0,030.8,30.7,0001.6,0009.20,0006.26,0005.92
2023-06-13 20:33:00,SystemResetWarning,0829.8,5.00,000.00,029.4,027.7,000.0,038.0,030.8,30.3,0001.7,0009.30,0006.30,0005.95
2023-06-13 20:34:00,SystemResetWarning,0829.8,5.00,000.00,029.4,027.8,000.0,038.0,030.8,30.7,0001.8,0009.31,0006.32,0005.97
2023-06-13 20:35:00,SystemResetWarning,0829.7,5.00,000.00,029.4,027.8,000.0,038.0,030.8,30.4,0001.9,0009.27,0006.30,0005.99
2023-06-13 20:36:00,SystemResetWarning,0829.8,5.00,000.00,029.4,027.8,000.0,038.0,030.8,30.3,0001.5,0009.53,0006.31,0006.00
2023-06-13 20:37:00,SystemResetWarning,0829.7,5.00,000.00,029.4,027.7,000.0,038.0,030.8,30.1,0001.7,0009.55,0006.33,0006.02
2023-06-13 20:38:00,SystemResetWarning,0829.7,5.00,000.00,029.4,027.7,000.0,038.0,030.8,30.7,0001.9,0009.52,0006.31,0006.01
2023-06-13 20:39:00,SystemResetWarning,0829.7,5.01,000.00,029.4,027.7,000.0,038.0,030.8,30.2,0001.9,0009.52,0006.30,0005.99
2023-06-13 20:40:00,SystemResetWarning,0829.7,5.00,000.00,029.4,027.7,000.0,038.0,030.8,30.1,0001.7,0009.42,0006.24,0005.94
2023-06-13 20:41:00,SystemResetWarning,0829.7,5.00,000.00,029.4,027.7,000.0,038.0,030.8,29.8,0001.8,0009.37,0006.19,0005.86
2023-06-13 20:42:00,SystemResetWarning,0829.7,5.00,000.00,029.4,027.7,000.0,038.0,030.8,30.1,0001.9,0009.27,0006.09,0005.76
2023-06-13 20:43:00,SystemResetWarning,0829.7,4.99,000.00,029.4,027.7,000.0,038.0,030.8,30.6,0002.0,0009.21,0006.01,0005.67
2023-06-13 20:44:00,SystemResetWarning,0829.7,4.99,000.00,029.4,027.7,000.0,037.9,030.8,30.3,0001.8,0009.12,0005.94,0005.60
2023-06-13 20:45:00,SystemResetWarning,0829.7,5.01,000.00,029.4,027.7,000.0,037.9,030.8,29.8,0002.3,0009.29,0005.83,0005.51
2023-06-13 20:46:00,SystemResetWarning,0829.7,5.01,000.00,029.4,027.7,000.0,037.9,030.8,29.9,0002.4,0009.26,0005.78,0005.45
2023-06-13 20:47:00,SystemResetWarning,0829.7,4.99,000.00,029.3,027.7,000.0,037.9,030.7,30.2,0002.6,0008.92,0005.75,0005.44
2023-06-13 20:48:00,SystemResetWarning,0829.7,5.00,000.00,029.3,027.7,000.0,037.9,030.7,29.8,0002.4,0008.90,0005.73,0005.41
2023-06-13 20:49:00,SystemResetWarning,0829.7,5.00,000.00,029.3,027.7,000.0,037.9,030.7,30.1,0002.0,0008.93,0005.71,0005.38
2023-06-13 20:50:00,SystemResetWarning,0829.7,5.00,000.00,029.3,027.7,000.0,037.9,030.8,32.0,0001.9,0008.97,0005.68,0005.34
2023-06-13 20:51:00,SystemResetWarning,0829.7,4.99,000.00,029.3,027.7,000.0,037.9,030.8,31.6,0002.0,0008.95,0005.66,0005.32
2023-06-13 20:52:00,SystemResetWarning,0829.6,5.01,000.00,029.3,027.7,000.0,037.9,030.8,32.1,0001.7,0008.86,0005.60,0005.27
2023-06-13 20:53:00,SystemResetWarning,0829.6,5.02,000.00,029.3,027.7,000.0,037.9,030.8,30.7,0001.7,0008.68,0005.46,0005.15
2023-06-13 20:54:00,SystemResetWarning,0829.6,5.00,000.00,029.3,027.7,000.0,037.9,030.8,30.5,0001.7,0008.97,0005.37,0005.04
2023-06-13 20:55:00,SystemResetWarning,0829.6,5.00,000.00,029.3,027.7,000.0,037.9,030.8,29.8,0001.6,0008.93,0005.24,0004.91
2023-06-13 20:56:00,SystemResetWarning,0829.5,5.00,000.00,029.3,027.7,000.0,037.9,030.7,30.3,0000.9,0008.71,0005.17,0004.82
2023-06-13 20:57:00,SystemResetWarning,0829.5,5.00,000.00,029.3,027.7,000.0,037.9,030.7,30.5,0000.6,0008.37,0005.11,0004.78
2023-06-13 20:58:00,SystemResetWarning,0829.4,5.00,000.00,029.3,027.7,000.0,037.9,030.7,30.7,0000.7,0008.35,0005.06,0004.71
2023-06-13 20:59:00,SystemResetWarning,0829.4,5.01,000.00,029.3,027.7,000.0,037.9,030.7,30.9,0001.1,0008.21,0004.94,0004.59
